STARLINK-5107, 54826

Orbit data source: Space-Track

STARLINK-5107, 54826 is a payload satellite owned by SpaceX/Seattle (US) in LEO that was launched on Wed, 28 Dec 2022 UTC via an FALCON 9 launch vehicle from the Air Force Eastern Test Range (AFETR). Payload-class satellites include a variety of spacecraft equipped with specific instruments for various scientific and technological missions. These include communications satellites like Starlink; space stations such as the ISS; scientific satellites like the Hubble; Earth observation satellites from companies like Planet Labs, Umbra, and HawkEye 360; GPS; miniature CubeSats for education and research; and military/defense satellites.

Loading next visibility...
Identifier
54826, 2022-177G
Orbit
LEO
Country
Flag of USUS
Related business
Manufacturer
SpaceX/Seattle
Mission
Operational Commercial Communications
Bus & Motor
STARLINK, Unknown motor
Mass
305 kg wet, ~290 kg dry
Launch date (UTC)
2022-12-28 (3 years ago)
Launch vehicle
FALCON 9
Launch site
Air Force Eastern Test Range (AFETR)
Object type
Payload
Rocket body
Debris
Shape & HBR
Box + 1 Pan, 10.1 m
Radar Cross Section
13.562 m², Large (>1 m²)

Expand to show TLE details & history
Last TLE update: 3 days ago

TLE from 3 days ago
0 STARLINK-5107
1 54826U 22177G   26170.76469248  .00000254  00000-0  18750-4 0  9992
2 54826  43.0030 279.6539 0001601 263.5210  96.5459 15.27575736192531
Epoch: 2026-06-19T18:21Z
TLE epoch observation values (Epoch: 2026-06-19T18:21:09.430Z)
Latitude
-0.00004°
Longitude
96.37559°
Altitude
482.963 km
Speed
7.626 km/s
True Right ascension
18h 38m 36s
True Declination
0° 00' 00"
Sunlit
Object was in full shadow at epoch
Visualization orbit readout
Latitude
Unknown
Longitude
Unknown
Altitude
Unknown
Speed
Unknown
Apparent Right ascension
Unknown
Apparent Declination
Unknown
Sunlit
N/A
Visualization observer readout
Local Sidereal Time
21:24:08
Azimuth
Unknown
Elevation
Unknown
Doppler factor
Unknown
Orbital elements
Apogee altitude
486.105 km
Perigee altitude
483.908 km
Semi-major axis
6,863.144 km
Eccentricity
0.00016
Inclination
43.003°
RAAN
279.6539°
Arg. of periapsis
263.521°
True anomaly
96.56413°
Mean anomaly
96.5459°
Eccentric anomaly
96.55501°
Mean motion
3.81732 °/min
Orbital period
94.31 mins
BSTAR
0.00001875
Loading maneuver chart data...
Computing Atmospheric mass density...
Loading historical data...
Loading historical data...
Loading historical data...
Loading historical data...
Loading historical data...
Loading historical data...
Loading historical data...

Documentation

Showing up to 5 results
|